星链-3272 (STARLINK-3272 )

导读

STARLINK-3272是美国SpaceX公司星链(Starlink)卫星互联网项目中的一颗低轨卫星,于2021年12月18日发射升空。作为星链星座的组成部分,它运行在近地轨道,旨在为全球偏远、欠发达地区提供高速、低延迟的宽带互联网接入服务,助力实现全球网络覆盖,推动SpaceX构建大规模卫星互联网星座的进程。

Basic Information
目录编号:
50187
目录名称:
STARLINK-3272
国际标识:
2021-125AH
轨道中心:
EARTH
卫星名称:
星链-3272
卫星全名:
星链-3272 (STARLINK-3272 )
卫星状态:
在轨 (已飞行1729 天)
发射日期:
2021-12-18 UTC
国别 :
美国 (US)
星等 :
--
This satellite is enrolled in the Space Conjunction Data Service (SCDS) and the current flight risk assessment level is: No High Risk
Orbit Information
数据来源 国际轨道数据 AOE轨道数据
星历时间 2026-09-12T02:28:37+0800
13小时前
查看轨道信息
2026-09-10T23:00:00+0800
1天前
查看轨道信息
半长轴 6900.548km 6900.766km
偏心率 0.0002685 0.0002774
轨道倾角 53.213° 53.212°
近地点辐角 110.965° 102.350°
升交点赤经 120.146° 125.334°
平近点角 249.163° 132.227°
近地点 520.558km 520.714km
远地点 524.264km 524.544km
周期 95.079分钟 95.084分钟
每日圈数 15.145286 15.144566
Detailed Information
固有亮度:
5
最大亮度:
2.5
卫星平台:
Starlink v1.5
覆盖范围:
全球
运营商:
太空探索技术公司
运营商所在国:
美国
制造商(研发单位):
太空探索技术公司
制造商所在国:
美国
使用方式:
暂无
Satellite Introduction
星链(Starlink)计划是由太空探索技术公司(SpaceX)提出的一个巨型低轨卫星互联网星座项目,计划在2019年至2024年间在太空搭建由约1.2万颗卫星组成的“星链”网络,其中1584颗将部署在地球上空550千米处的近地轨道,并从2020年开始工作。该卫星仍在工作。
2D Orbit Map
3D Orbit Map
Orbit Altitude Analysis Chart
Orbit Inclination Analysis Chart
Orbit Comprehensive Analysis Chart
View Comprehensive Chart
Conjunction Data List
Event ID Objects TCA Miss Dist (km) Collision Risk Probability Collision Risk Index (CRI) Action
CDM_260906-180305-018706-190225
OBJECT J (61902)
2026-09-06T
18:03:30+0000
1.441 km
极远距离
7.631707E-6 低风险 0.53
CDM_260913-203605-018705-980621
OBJECT B (59806)
2026-09-13T
20:36:36+0000
2.330 km
极远距离
1.954367E-6 低风险 0.41
CDM_260913-065705-018705-738923
2026-09-13T
06:57:11+0000
2.529 km
极远距离
1.718342E-6 低风险 0.4
CDM_260905-062603-604705-018721
2026-09-05T
06:26:33+0000
2.663 km
极远距离
6.23319E-7 极低风险 0.31
Miss Distance Evolution Trend with All Objects
Collision Probability Evolution Trend with All Objects